Wind_Speed
107 107 108 106 101 97 97 95 94 94 95 96 96 93 91 89 87 85 83 80 79 80 79 77 74 72 70 70 70 68 67 66 64
114 111 112 111 112 111 108 103 102 101 104 101 98 99 96 94 93 91 89 86 84 83 83 83 80 77 75 73 70 70 71 70 70
120 122 120 118 117 117 116 113 112 109 110 107 105 102 99 99 99 96 94 92 88 88 87 85 85 85 82 79 76 73 72 73 72
124 125 124 124 124 121 121 119 118 116 116 114 112 109 105 104 103 99 99 97 94 93 93 92 90 87 88 85 83 81 75 74 74
118 124 128 129 128 128 126 124 122 120 118 119 119 116 114 112 108 103 101 99 101 95 95 96 95 93 90 89 86 84 83 81 79
125 128 125 128 131 134 132 130 129 125 121 121 120 121 119 116 113 110 109 105 101 97 95 96 97 95 96 95 92 89 87 86 84
130 130 130 132 133 135 135 136 131 131 129 124 126 125 123 121 119 117 112 111 110 107 101 99 97 95 94 93 94 95 93 90 88
130 134 137 137 136 138 138 136 136 135 133 133 132 130 130 129 124 122 118 113 114 114 109 105 99 98 96 95 94 94 91 91 93
135 141 137 139 139 141 140 141 141 137 136 135 135 135 131 131 130 128 126 116 115 117 112 108 107 101 98 98 97 98 96 93 91
145 143 144 145 145 144 143 146 145 143 140 138 137 137 135 132 129 131 130 126 120 117 118 108 105 104 100 101 101 100 99 97 95
135 146 150 149 151 148 147 144 149 148 145 141 141 138 137 135 132 130 128 127 125 117 113 107 103 99 91 87 93 100 101 101 98
103 122 142 149 153 153 151 148 150 151 149 148 145 145 141 137 136 131 128 127 124 122 113 102 103 102 96 96 93 94 94 95 99
79 85 101 134 133 152 162 162 152 152 151 150 151 147 147 143 139 135 129 128 126 122 117 112 110 102 100 99 109 98 96 81 85
64 71 78 95 106 128 148 156 164 157 154 154 153 153 152 148 144 140 134 129 128 126 122 118 113 112 99 104 109 107 101 101 94
51 57 64 72 83 96 115 138 158 164 165 163 159 153 153 151 150 144 141 136 130 129 128 125 118 112 107 104 109 107 107 104 98
43 47 52 58 62 74 91 111 124 144 153 163 163 159 156 152 152 150 147 142 139 135 133 130 125 115 115 110 109 110 111 102 99
42 43 45 47 52 59 69 85 100 117 141 149 164 167 162 155 153 153 150 148 146 142 138 134 128 125 121 118 116 113 109 104 104
42 43 39 41 42 49 55 62 79 97 115 134 154 165 163 165 159 156 152 151 150 149 146 142 135 130 127 123 119 120 116 114 107
39 40 39 37 37 41 47 52 60 77 95 108 125 151 156 165 165 163 159 155 153 148 152 149 145 139 133 129 124 120 118 117 113
37 37 37 40 37 38 40 45 51 61 77 92 109 126 146 153 160 162 165 163 156 153 152 155 151 147 140 135 130 125 122 119 118
Wind_Direction
251 252 252 253 251 250 248 249 249 248 247 247 245 243 242 243 242 242 243 242 242 244 246 246 247 247 248 249 249 249 251 251 252
247 248 250 251 252 252 251 249 250 248 248 245 246 247 244 244 244 243 244 242 243 244 245 245 246 248 247 248 250 250 251 251 252
247 246 246 247 249 250 249 251 251 250 250 247 247 246 246 247 245 244 244 245 244 246 246 246 246 247 247 247 249 251 251 251 252
245 245 244 246 245 245 247 249 249 250 251 251 250 247 246 247 245 247 248 248 247 246 249 249 249 248 248 249 249 249 250 249 250
244 245 244 244 243 244 243 244 245 247 247 250 252 250 248 245 245 246 248 248 248 250 253 251 251 251 250 250 251 250 250 250 250
243 241 241 243 243 242 242 242 243 243 243 245 247 250 250 249 247 247 247 246 247 247 248 249 250 251 252 253 253 251 251 253 252
244 243 241 241 241 241 241 240 240 241 240 240 242 244 247 249 250 250 250 250 249 249 248 248 250 252 250 252 253 251 253 251 252
243 243 243 242 240 241 240 239 240 238 238 240 240 242 244 246 246 248 249 250 252 251 250 250 251 249 250 250 252 253 253 254 253
242 241 242 242 240 239 240 240 239 238 238 238 239 240 240 242 243 244 246 246 249 252 252 253 252 251 251 251 250 250 253 253 253
244 242 243 241 242 241 240 239 239 239 238 237 237 239 239 239 240 241 242 244 244 247 250 249 253 254 254 251 252 252 251 250 252
248 246 244 243 243 241 241 239 241 239 237 238 237 236 238 239 239 239 240 240 241 242 245 244 244 247 248 251 252 251 250 253 252
248 250 246 245 243 244 244 242 239 240 240 237 235 236 236 237 237 237 237 238 239 239 238 236 239 244 234 246 245 246 249 251 251
258 252 248 245 246 244 243 243 241 239 239 240 238 237 236 235 234 235 235 237 236 236 236 234 236 233 243 239 245 245 248 239 249
262 259 254 246 247 243 241 238 240 240 240 242 240 237 236 236 234 233 233 233 235 235 234 232 235 234 235 235 242 242 245 244 247
271 265 258 252 250 245 241 240 239 240 241 240 239 239 237 237 236 233 232 231 231 234 234 234 231 234 230 231 239 242 243 244 246
282 273 265 258 251 250 244 240 240 238 239 238 237 239 239 237 237 235 232 232 230 230 233 233 233 228 231 229 234 238 242 242 243
299 289 274 267 256 251 249 244 243 241 236 235 235 235 237 240 237 234 234 231 231 231 230 231 232 232 228 231 231 234 240 240 241
312 303 290 278 268 258 252 249 244 239 239 236 234 234 234 237 236 237 235 234 233 230 231 231 229 231 231 227 232 233 235 239 239
318 310 304 294 280 266 257 251 246 242 238 238 237 234 233 234 236 237 236 236 236 234 232 230 230 228 229 229 227 232 234 237 238
324 315 312 305 294 279 263 255 249 244 238 237 235 234 231 234 235 236 237 236 236 236 234 232 230 231 228 229 228 228 231 234 236
Height
10788 10791 10795 10797 10801 10808 10811 10816 10821 10825 10829 10833 10837 10843 10848 10855 10860 10864 10868 10875 10880 10884 10888 10893 10897 10902 10906 10910 10914 10918 10921 10925 10929
10762 10766 10770 10775 10781 10784 10787 10794 10799 10802 10802 10812 10817 10824 10832 10838 10843 10846 10852 10860 10867 10871 10875 10881 10885 10890 10895 10899 10903 10908 10911 10915 10919
10733 10738 10742 10747 10754 10759 10765 10770 10775 10779 10781 10789 10796 10804 10811 10817 10824 10831 10836 10843 10853 10857 10862 10867 10872 10877 10882 10887 10892 10896 10900 10904 10907
10702 10706 10711 10719 10725 10731 10738 10745 10752 10756 10761 10766 10771 10781 10791 10797 10805 10813 10821 10829 10836 10841 10845 10852 10857 10863 10868 10873 10878 10883 10887 10891 10894
10669 10675 10681 10689 10695 10702 10709 10717 10725 10734 10739 10742 10749 10756 10765 10773 10785 10795 10800 10810 10817 10824 10828 10834 10841 10847 10853 10858 10864 10868 10874 10878 10882
10634 10639 10647 10655 10661 10669 10677 10688 10696 10705 10714 10719 10726 10732 10741 10749 10760 10770 10779 10789 10794 10803 10810 10816 10823 10829 10837 10843 10848 10854 10859 10863 10868
10601 10608 10613 10621 10627 10635 10644 10653 10666 10677 10683 10692 10701 10708 10717 10725 10735 10746 10758 10765 10771 10779 10791 10800 10807 10811 10818 10824 10830 10837 10843 10848 10854
10566 10572 10578 10587 10593 10603 10611 10620 10632 10643 10654 10662 10670 10682 10693 10702 10712 10721 10735 10743 10749 10757 10770 10781 10789 10794 10799 10805 10812 10818 10825 10831 10837
10526 10534 10542 10550 10553 10567 10576 10588 10598 10610 10623 10634 10641 10650 10665 10677 10687 10698 10709 10721 10730 10737 10748 10759 10766 10775 10781 10787 10793 10800 10805 10813 10820
10487 10496 10503 10512 10519 10530 10540 10547 10561 10576 10590 10601 10611 10622 10632 10646 10659 10670 10685 10696 10708 10717 10729 10743 10749 10756 10762 10767 10772 10778 10787 10794 10802
10450 10463 10468 10474 10480 10486 10504 10515 10525 10540 10553 10568 10579 10590 10602 10614 10628 10643 10656 10671 10682 10697 10706 10723 10731 10738 10744 10744 10748 10756 10767 10773 10782
10413 10420 10428 10433 10443 10456 10469 10475 10488 10501 10518 10531 10540 10557 10572 10586 10597 10612 10628 10643 10656 10670 10685 10698 10709 10719 10718 10726 10727 10736 10748 10756 10763
10381 10386 10384 10390 10398 10411 10426 10440 10452 10468 10479 10494 10509 10523 10537 10552 10567 10583 10598 10614 10628 10643 10658 10671 10683 10699 10704 10707 10707 10720 10731 10740 10747
10357 10356 10356 10356 10362 10368 10380 10394 10408 10427 10443 10454 10470 10484 10502 10520 10536 10552 10572 10586 10600 10612 10627 10643 10656 10673 10688 10689 10688 10701 10710 10723 10730
10335 10331 10330 10332 10334 10334 10341 10352 10366 10386 10408 10420 10432 10446 10466 10483 10505 10523 10540 10557 10571 10583 10597 10612 10632 10643 10660 10672 10670 10678 10688 10700 10711
10318 10312 10307 10305 10307 10306 10310 10321 10328 10345 10359 10376 10402 10413 10427 10450 10471 10489 10510 10527 10539 10552 10567 10584 10602 10619 10630 10647 10655 10660 10667 10682 10693
10302 10295 10290 10285 10284 10282 10285 10290 10297 10308 10317 10339 10357 10378 10392 10419 10438 10453 10472 10489 10504 10524 10537 10556 10574 10589 10607 10620 10635 10641 10646 10663 10674
10289 10280 10273 10267 10264 10260 10261 10265 10270 10277 10287 10302 10318 10340 10367 10374 10396 10418 10435 10451 10472 10491 10506 10524 10543 10559 10578 10595 10608 10621 10632 10641 10657
10279 10269 10259 10252 10248 10242 10242 10243 10246 10251 10259 10270 10284 10311 10325 10341 10362 10381 10401 10419 10440 10457 10475 10492 10509 10528 10547 10565 10584 10597 10609 10621 10633
10270 10258 10247 10239 10232 10227 10223 10223 10225 10228 10234 10244 10255 10273 10291 10306 10327 10345 10366 10383 10406 10423 10441 10461 10480 10499 10518 10538 10554 10573 10584 10598 10610